Volver al catálogo

CZ-8A R/B

ActivoLEO
NORAD 62980·ROCKET BODY·🇨🇳 China

Lanzado Feb 11, 2025 desde Wenchang Space Launch Site

Loading…

Próximos Pases (próximas 24 horas)

TLE

ActualizadoSource: Space-Track

Época: Sep 14, 2026, 00:09 UTC

1 62980U 25030K   26257.00662430  .00000008  00000-0  59505-4 0  9994
2 62980  50.0051 276.9369 0118188 333.2825  26.2035 14.32995738 83104

Sigue CZ-8A R/B en tiempo real con AllMySat

Download on the App Store